Time,TemperatureF,DewpointF,PressureIn,WindDirection,WindDirectionDegrees,WindSpeedMPH,WindSpeedGustMPH,Humidity,HourlyPrecipIn,Conditions,Clouds,dailyrainin,SoftwareType,DateUTC
2013-08-07 00:02:00,83.0,75.0,28.45,SE,125,2.0,5.0,77,0.00,,,0.11,,2013-08-07 05:02:00,
2013-08-07 00:11:00,82.0,74.0,28.46,South,189,3.0,3.0,78,0.00,,,0.11,,2013-08-07 05:11:00,
2013-08-07 00:22:00,82.0,74.0,28.46,South,172,2.0,5.0,78,0.00,,,0.11,,2013-08-07 05:22:00,
2013-08-07 00:32:00,82.0,74.0,28.46,SE,146,2.0,3.0,78,0.00,,,0.11,,2013-08-07 05:32:00,
2013-08-07 00:43:00,82.0,74.0,28.46,WNW,282,2.0,5.0,78,0.00,,,0.11,,2013-08-07 05:43:00,
2013-08-07 00:52:00,81.0,73.0,28.46,WSW,257,0.0,3.0,78,0.00,,,0.11,,2013-08-07 05:52:00,
2013-08-07 01:02:00,81.0,74.0,28.46,SE,143,2.0,3.0,79,0.00,,,0.11,,2013-08-07 06:02:00,
2013-08-07 01:11:00,82.0,74.0,28.46,South,180,1.0,3.0,78,0.00,,,0.11,,2013-08-07 06:11:00,
2013-08-07 01:22:00,81.0,73.0,28.46,West,279,3.0,5.0,78,0.00,,,0.11,,2013-08-07 06:22:00,
2013-08-07 01:32:00,81.0,74.0,28.45,SSW,198,2.0,3.0,79,0.00,,,0.11,,2013-08-07 06:32:00,
2013-08-07 01:43:00,81.0,73.0,28.45,South,181,3.0,5.0,78,0.00,,,0.11,,2013-08-07 06:43:00,
2013-08-07 01:52:00,81.0,73.0,28.44,SSE,164,2.0,5.0,78,0.00,,,0.11,,2013-08-07 06:52:00,
2013-08-07 02:01:00,81.0,73.0,28.43,SSW,207,4.0,6.0,78,0.00,,,0.11,,2013-08-07 07:01:00,
2013-08-07 02:12:00,81.0,73.0,28.43,WSW,237,3.0,6.0,77,0.00,,,0.11,,2013-08-07 07:12:00,
2013-08-07 02:22:00,82.0,74.0,28.43,SSW,197,4.0,7.0,76,0.00,,,0.11,,2013-08-07 07:22:00,
2013-08-07 02:33:00,81.0,73.0,28.42,SW,225,5.0,6.0,76,0.00,,,0.11,,2013-08-07 07:33:00,
2013-08-07 02:43:00,81.0,72.0,28.42,West,270,5.0,8.0,75,0.00,,,0.11,,2013-08-07 07:43:00,
2013-08-07 02:52:00,81.0,72.0,28.42,NE,34,3.0,6.0,75,0.00,,,0.11,,2013-08-07 07:52:00,
2013-08-07 03:01:00,81.0,72.0,28.42,SSE,155,5.0,6.0,75,0.00,,,0.11,,2013-08-07 08:01:00,
2013-08-07 03:11:00,81.0,72.0,28.42,SSE,156,3.0,7.0,75,0.00,,,0.11,,2013-08-07 08:11:00,
2013-08-07 03:22:00,80.0,71.0,28.43,SSW,198,2.0,5.0,75,0.00,,,0.11,,2013-08-07 08:22:00,
2013-08-07 03:32:00,80.0,72.0,28.43,South,170,2.0,3.0,76,0.00,,,0.11,,2013-08-07 08:32:00,
2013-08-07 03:44:00,80.0,72.0,28.43,SSW,205,3.0,5.0,76,0.00,,,0.11,,2013-08-07 08:44:00,
2013-08-07 03:52:00,80.0,72.0,28.43,SSW,193,3.0,5.0,76,0.00,,,0.11,,2013-08-07 08:52:00,
2013-08-07 04:02:00,79.0,71.0,28.42,SSW,208,2.0,5.0,76,0.00,,,0.11,,2013-08-07 09:02:00,
2013-08-07 04:11:00,80.0,72.0,28.42,South,191,4.0,6.0,76,0.00,,,0.11,,2013-08-07 09:11:00,
2013-08-07 04:22:00,80.0,71.0,28.43,South,174,4.0,6.0,75,0.00,,,0.11,,2013-08-07 09:22:00,
2013-08-07 04:32:00,80.0,71.0,28.43,SSW,208,3.0,6.0,75,0.00,,,0.11,,2013-08-07 09:32:00,
2013-08-07 04:43:00,80.0,71.0,28.43,SE,130,2.0,5.0,75,0.00,,,0.11,,2013-08-07 09:43:00,
2013-08-07 04:54:00,80.0,71.0,28.43,SSW,195,3.0,6.0,75,0.00,,,0.11,,2013-08-07 09:54:00,
2013-08-07 05:01:00,79.0,71.0,28.44,SE,136,2.0,5.0,77,0.00,,,0.11,,2013-08-07 10:01:00,
2013-08-07 05:11:00,79.0,71.0,28.46,NNE,22,1.0,3.0,77,0.00,,,0.11,,2013-08-07 10:11:00,
2013-08-07 05:22:00,78.0,71.0,28.46,SE,135,0.0,1.0,78,0.00,,,0.11,,2013-08-07 10:22:00,
2013-08-07 05:32:00,78.0,71.0,28.47,SW,229,0.0,0.0,79,0.00,,,0.11,,2013-08-07 10:32:00,
2013-08-07 05:43:00,78.0,71.0,28.47,ESE,112,0.0,0.0,79,0.00,,,0.11,,2013-08-07 10:43:00,
2013-08-07 05:52:00,77.0,70.0,28.46,WSW,247,0.0,0.0,80,0.00,,,0.11,,2013-08-07 10:52:00,
2013-08-07 06:01:00,77.0,71.0,28.45,SSE,158,0.0,0.0,82,0.00,,,0.11,,2013-08-07 11:01:00,
2013-08-07 06:11:00,76.0,70.0,28.44,North,0,0.0,0.0,82,0.00,,,0.11,,2013-08-07 11:11:00,
2013-08-07 06:22:00,76.0,70.0,28.45,South,180,0.0,0.0,83,0.00,,,0.11,,2013-08-07 11:22:00,
2013-08-07 06:32:00,75.0,70.0,28.45,East,79,0.0,0.0,84,0.00,,,0.11,,2013-08-07 11:32:00,
2013-08-07 06:43:00,75.0,70.0,28.45,WSW,245,0.0,0.0,85,0.00,,,0.11,,2013-08-07 11:43:00,
2013-08-07 06:52:00,75.0,71.0,28.45,SSW,205,0.0,0.0,86,0.00,,,0.11,,2013-08-07 11:52:00,
2013-08-07 07:02:00,74.0,70.0,28.46,SSE,158,0.0,0.0,86,0.00,,,0.11,,2013-08-07 12:02:00,
2013-08-07 07:11:00,75.0,71.0,28.46,WSW,238,0.0,1.0,87,0.00,,,0.11,,2013-08-07 12:11:00,
2013-08-07 07:22:00,75.0,72.0,28.48,WSW,252,1.0,1.0,89,0.00,,,0.11,,2013-08-07 12:22:00,
2013-08-07 07:32:00,75.0,72.0,28.49,North,0,1.0,1.0,89,0.00,,,0.11,,2013-08-07 12:32:00,
2013-08-07 07:43:00,75.0,72.0,28.49,NW,315,0.0,1.0,89,0.00,,,0.11,,2013-08-07 12:43:00,
2013-08-07 07:52:00,76.0,72.0,28.50,NW,305,0.0,1.0,88,0.00,,,0.11,,2013-08-07 12:52:00,
2013-08-07 08:02:00,77.0,73.0,28.50,West,272,0.0,0.0,87,0.00,,,0.11,,2013-08-07 13:02:00,
2013-08-07 08:11:00,77.0,72.0,28.50,West,259,1.0,2.0,86,0.00,,,0.11,,2013-08-07 13:11:00,
2013-08-07 08:22:00,77.0,72.0,28.51,North,350,1.0,2.0,85,0.00,,,0.11,,2013-08-07 13:22:00,
2013-08-07 08:32:00,77.0,72.0,28.52,ENE,66,2.0,3.0,85,0.00,,,0.11,,2013-08-07 13:32:00,
2013-08-07 08:44:00,77.0,72.0,28.52,ENE,78,2.0,3.0,85,0.00,,,0.11,,2013-08-07 13:44:00,
2013-08-07 09:02:00,77.0,72.0,28.52,North,8,1.0,5.0,85,0.00,,,0.11,,2013-08-07 14:02:00,
2013-08-07 09:12:00,77.0,72.0,28.52,NE,35,3.0,6.0,85,0.00,,,0.11,,2013-08-07 14:12:00,
2013-08-07 09:22:00,77.0,72.0,28.53,NNW,337,2.0,6.0,84,0.00,,,0.11,,2013-08-07 14:22:00,
2013-08-07 09:33:00,77.0,72.0,28.51,SW,230,2.0,3.0,84,0.00,,,0.11,,2013-08-07 14:33:00,
2013-08-07 09:43:00,77.0,72.0,28.51,NE,43,2.0,3.0,84,0.00,,,0.11,,2013-08-07 14:43:00,
2013-08-07 09:52:00,77.0,71.0,28.52,North,353,2.0,5.0,83,0.00,,,0.11,,2013-08-07 14:52:00,
2013-08-07 10:02:00,77.0,71.0,28.52,East,100,2.0,5.0,83,0.00,,,0.05,,2013-08-07 15:02:00,
2013-08-07 10:12:00,78.0,72.0,28.53,NE,34,2.0,6.0,82,0.00,,,0.02,,2013-08-07 15:12:00,
2013-08-07 10:22:00,78.0,72.0,28.54,NNE,16,3.0,5.0,82,0.00,,,0.00,,2013-08-07 15:22:00,
2013-08-07 10:33:00,77.0,72.0,28.56,WNW,290,2.0,5.0,84,0.00,,,0.00,,2013-08-07 15:33:00,
2013-08-07 10:43:00,76.0,72.0,28.56,NNE,22,2.0,6.0,88,0.07,,,0.07,,2013-08-07 15:43:00,
2013-08-07 10:53:00,74.0,71.0,28.55,NNE,22,2.0,6.0,90,0.08,,,0.08,,2013-08-07 15:53:00,
2013-08-07 11:02:00,74.0,71.0,28.54,WNW,285,3.0,6.0,91,0.08,,,0.08,,2013-08-07 16:02:00,
2013-08-07 11:11:00,74.0,71.0,28.52,WSW,243,4.0,7.0,91,0.08,,,0.08,,2013-08-07 16:11:00,
2013-08-07 11:22:00,74.0,71.0,28.52,NNW,336,2.0,5.0,90,0.08,,,0.08,,2013-08-07 16:22:00,
2013-08-07 11:33:00,74.0,71.0,28.53,SW,225,2.0,5.0,90,0.08,,,0.08,,2013-08-07 16:33:00,
2013-08-07 11:43:00,76.0,72.0,28.53,South,181,4.0,9.0,87,0.01,,,0.08,,2013-08-07 16:43:00,
2013-08-07 11:53:00,80.0,75.0,28.52,South,173,3.0,9.0,84,0.00,,,0.08,,2013-08-07 16:53:00,
2013-08-07 12:01:00,78.0,72.0,28.53,SW,226,2.0,6.0,83,0.00,,,0.08,,2013-08-07 17:01:00,
2013-08-07 12:11:00,79.0,73.0,28.53,WNW,291,2.0,6.0,81,0.00,,,0.08,,2013-08-07 17:11:00,
2013-08-07 12:22:00,80.0,74.0,28.54,NNW,328,1.0,5.0,82,0.00,,,0.08,,2013-08-07 17:22:00,
2013-08-07 12:33:00,81.0,75.0,28.54,SW,226,1.0,2.0,82,0.00,,,0.08,,2013-08-07 17:33:00,
2013-08-07 12:43:00,82.0,74.0,28.54,NNE,30,2.0,2.0,78,0.00,,,0.08,,2013-08-07 17:43:00,
2013-08-07 12:52:00,83.0,76.0,28.53,East,99,2.0,3.0,79,0.00,,,0.08,,2013-08-07 17:52:00,
2013-08-07 13:02:00,84.0,76.0,28.52,WSW,253,2.0,5.0,77,0.00,,,0.08,,2013-08-07 18:02:00,
2013-08-07 13:22:00,86.0,78.0,28.51,WSW,246,2.0,6.0,76,0.00,,,0.08,,2013-08-07 18:22:00,
2013-08-07 13:32:00,86.0,76.0,28.49,South,180,2.0,6.0,72,0.00,,,0.08,,2013-08-07 18:32:00,
2013-08-07 13:43:00,90.0,78.0,28.49,WSW,245,3.0,7.0,67,0.00,,,0.08,,2013-08-07 18:43:00,
2013-08-07 13:52:00,90.0,78.0,28.49,NW,317,2.0,6.0,67,0.00,,,0.08,,2013-08-07 18:52:00,
2013-08-07 14:01:00,91.0,78.0,28.49,SSW,206,3.0,7.0,66,0.00,,,0.08,,2013-08-07 19:01:00,
2013-08-07 14:11:00,90.0,77.0,28.48,North,11,3.0,6.0,66,0.00,,,0.08,,2013-08-07 19:11:00,
2013-08-07 14:22:00,90.0,77.0,28.48,North,11,3.0,6.0,66,0.00,,,0.08,,2013-08-07 19:22:00,
2013-08-07 14:32:00,91.0,76.0,28.47,South,182,5.0,7.0,62,0.00,,,0.08,,2013-08-07 19:32:00,
2013-08-07 14:44:00,91.0,77.0,28.47,SW,232,3.0,7.0,64,0.00,,,0.08,,2013-08-07 19:44:00,
2013-08-07 14:52:00,91.0,77.0,28.47,West,276,3.0,6.0,64,0.00,,,0.08,,2013-08-07 19:52:00,
2013-08-07 15:02:00,91.0,76.0,28.48,North,6,0.0,5.0,61,0.00,,,0.08,,2013-08-07 20:02:00,
2013-08-07 15:22:00,90.0,76.0,28.47,SSW,212,2.0,6.0,64,0.00,,,0.08,,2013-08-07 20:22:00,
2013-08-07 15:32:00,90.0,75.0,28.46,SSW,192,3.0,6.0,62,0.00,,,0.08,,2013-08-07 20:32:00,
2013-08-07 15:43:00,89.0,75.0,28.46,SSW,207,3.0,5.0,63,0.00,,,0.08,,2013-08-07 20:43:00,
2013-08-07 15:52:00,89.0,75.0,28.46,SSW,205,2.0,3.0,64,0.00,,,0.08,,2013-08-07 20:52:00,
2013-08-07 16:01:00,89.0,75.0,28.46,South,179,2.0,5.0,64,0.00,,,0.08,,2013-08-07 21:01:00,
2013-08-07 16:11:00,90.0,76.0,28.45,South,186,2.0,5.0,64,0.00,,,0.08,,2013-08-07 21:11:00,
2013-08-07 16:22:00,90.0,76.0,28.45,SE,141,3.0,5.0,63,0.00,,,0.08,,2013-08-07 21:22:00,
2013-08-07 16:32:00,91.0,76.0,28.44,South,188,2.0,5.0,62,0.00,,,0.08,,2013-08-07 21:32:00,
2013-08-07 16:43:00,91.0,76.0,28.44,SSW,192,4.0,6.0,62,0.00,,,0.08,,2013-08-07 21:43:00,
2013-08-07 16:52:00,90.0,77.0,28.45,SSE,150,3.0,6.0,65,0.00,,,0.08,,2013-08-07 21:52:00,
2013-08-07 17:01:00,90.0,77.0,28.44,SE,146,3.0,6.0,66,0.00,,,0.08,,2013-08-07 22:01:00,
2013-08-07 17:12:00,90.0,78.0,28.44,SSE,156,1.0,3.0,67,0.00,,,0.08,,2013-08-07 22:12:00,
2013-08-07 17:22:00,92.0,80.0,28.45,North,353,2.0,3.0,69,0.00,,,0.08,,2013-08-07 22:22:00,
2013-08-07 17:32:00,90.0,79.0,28.45,NW,306,1.0,3.0,71,0.00,,,0.08,,2013-08-07 22:32:00,
2013-08-07 17:43:00,92.0,80.0,28.45,East,88,3.0,3.0,69,0.00,,,0.08,,2013-08-07 22:43:00,
2013-08-07 17:52:00,90.0,79.0,28.46,East,84,3.0,5.0,71,0.00,,,0.08,,2013-08-07 22:52:00,
2013-08-07 18:01:00,89.0,79.0,28.45,ENE,68,2.0,5.0,72,0.00,,,0.08,,2013-08-07 23:01:00,
2013-08-07 18:11:00,89.0,79.0,28.45,NW,326,2.0,3.0,73,0.00,,,0.08,,2013-08-07 23:11:00,
2013-08-07 18:22:00,89.0,79.0,28.46,NNE,30,2.0,3.0,73,0.00,,,0.08,,2013-08-07 23:22:00,
2013-08-07 18:32:00,88.0,78.0,28.46,NW,322,3.0,3.0,73,0.00,,,0.08,,2013-08-07 23:32:00,
2013-08-07 18:43:00,87.0,77.0,28.46,ENE,75,2.0,3.0,73,0.00,,,0.08,,2013-08-07 23:43:00,
2013-08-07 18:52:00,88.0,78.0,28.46,East,82,2.0,5.0,73,0.00,,,0.08,,2013-08-07 23:52:00,
2013-08-07 19:01:00,87.0,78.0,28.46,NE,44,2.0,3.0,74,0.00,,,0.08,,2013-08-08 00:01:00,
2013-08-07 19:22:00,86.0,78.0,28.46,NW,315,2.0,3.0,78,0.00,,,0.08,,2013-08-08 00:22:00,
2013-08-07 19:32:00,84.0,77.0,28.46,NE,36,2.0,3.0,80,0.00,,,0.08,,2013-08-08 00:32:00,
2013-08-07 19:42:00,84.0,77.0,28.46,NW,308,2.0,3.0,80,0.00,,,0.08,,2013-08-08 00:42:00,
2013-08-07 19:52:00,84.0,77.0,28.46,NW,308,2.0,3.0,80,0.00,,,0.08,,2013-08-08 00:52:00,
2013-08-07 20:02:00,83.0,77.0,28.47,NE,34,2.0,5.0,81,0.00,,,0.08,,2013-08-08 01:02:00,
2013-08-07 20:11:00,82.0,76.0,28.47,NE,44,4.0,6.0,81,0.00,,,0.08,,2013-08-08 01:11:00,
2013-08-07 20:22:00,82.0,76.0,28.46,WSW,249,3.0,6.0,82,0.00,,,0.08,,2013-08-08 01:22:00,
2013-08-07 20:32:00,81.0,75.0,28.47,ENE,66,3.0,5.0,82,0.00,,,0.08,,2013-08-08 01:32:00,
2013-08-07 20:43:00,80.0,74.0,28.47,SW,229,4.0,6.0,83,0.00,,,0.08,,2013-08-08 01:43:00,
2013-08-07 20:52:00,80.0,75.0,28.47,North,0,3.0,6.0,84,0.00,,,0.08,,2013-08-08 01:52:00,
2013-08-07 21:02:00,80.0,75.0,28.48,NW,311,3.0,6.0,85,0.00,,,0.08,,2013-08-08 02:02:00,
2013-08-07 21:11:00,79.0,74.0,28.48,NNW,342,3.0,5.0,85,0.00,,,0.08,,2013-08-08 02:11:00,
2013-08-07 21:22:00,79.0,74.0,28.48,NNW,327,3.0,6.0,85,0.00,,,0.08,,2013-08-08 02:22:00,
2013-08-07 21:32:00,79.0,74.0,28.48,NNE,23,2.0,6.0,85,0.00,,,0.08,,2013-08-08 02:32:00,
2013-08-07 21:43:00,79.0,74.0,28.48,North,359,3.0,6.0,84,0.00,,,0.08,,2013-08-08 02:43:00,
2013-08-07 21:52:00,78.0,73.0,28.48,ENE,65,3.0,5.0,84,0.00,,,0.08,,2013-08-08 02:52:00,
2013-08-07 22:01:00,78.0,73.0,28.49,West,266,2.0,5.0,84,0.00,,,0.08,,2013-08-08 03:01:00,
2013-08-07 22:12:00,78.0,73.0,28.49,North,10,2.0,5.0,84,0.00,,,0.08,,2013-08-08 03:12:00,
2013-08-07 22:22:00,78.0,73.0,28.49,NNE,15,1.0,3.0,84,0.00,,,0.08,,2013-08-08 03:22:00,
2013-08-07 22:32:00,78.0,73.0,28.50,NE,43,2.0,3.0,84,0.00,,,0.08,,2013-08-08 03:32:00,
2013-08-07 22:43:00,78.0,73.0,28.50,NE,43,2.0,3.0,84,0.00,,,0.08,,2013-08-08 03:43:00,
2013-08-07 22:52:00,78.0,73.0,28.50,NE,44,2.0,3.0,84,0.00,,,0.08,,2013-08-08 03:52:00,
2013-08-07 23:01:00,78.0,73.0,28.50,North,9,2.0,3.0,84,0.00,,,0.08,,2013-08-08 04:01:00,
2013-08-07 23:11:00,78.0,73.0,28.50,NW,304,2.0,3.0,86,0.00,,,0.08,,2013-08-08 04:11:00,
2013-08-07 23:33:00,78.0,73.0,28.50,North,11,2.0,6.0,86,0.00,,,0.08,,2013-08-08 04:33:00,
2013-08-07 23:43:00,78.0,73.0,28.49,NW,325,0.0,1.0,86,0.00,,,0.08,,2013-08-08 04:43:00,
2013-08-07 23:53:00,78.0,73.0,28.49,NNE,17,3.0,6.0,86,0.00,,,0.08,,2013-08-08 04:53:00,